User: anonymous   Login
Location: Unspecified
(17.6330°N, 0.0000°E)
Time: 14:40:17
(UTC+00:00)
Language:

N. Korean satellite - Orbit

View from above orbital plane
View from above orbital plane
View from above satellite
View from above satellite

Ground track
Ground track

The orbit data is extracted from the following two-line orbital elements,

1 39026U 12072A   19175.75492176 +.00000959 +00000-0 +37146-4 0  9994
2 39026 097.2104 178.7063 0039953 080.2450 280.3299 15.27815142362465
Epoch (UTC): 24 June 2019 18:07:05
Eccentricity: 0.0039953
inclination: 97.2104°
perigee height: 455 km
apogee height: 510 km
right ascension of ascending node: 178.7063°
argument of perigee: 80.2450°
revolutions per day: 15.27815142
mean anomaly at epoch: 280.3299°
orbit number at epoch: 36246

The dashed part of the orbit path shows where the satellite is in the earth's shadow,  

DLR